ROCKY HARBOUR CS/NF, current weather conditions

sailwx.info

Last reported at 2014-Nov-28 09:33 UTC.
Time now 2014-Nov-28 11:00 UTC

Location: N 49°34' W 057°53'.
View on Google Maps.

See reports from other nearby stations

  
Tides and Currents Weather Stations Pressure Air Temp Water Temp Dewpoint Dewpoint Depression Visibility Wind Speed Wind Dir Waves Ship Positions
date/time (UTC)wind fromknots sea level pressurealtimeterstation pressurevisibilityair tempwater tempwave heightnotes
2014-Nov-28 09:00 360 4 -3.4
2014-Nov-28 08:00 020 6 -3.7
2014-Nov-28 07:00 340 4 -4.2
2014-Nov-28 06:00 360 6 -3.8
2014-Nov-28 05:00 350 5 -3.7
2014-Nov-28 04:00 340 6 gusting 15 -2.5
2014-Nov-28 03:00 340 6 -3.1
2014-Nov-28 02:00 350 4 -2.4
2014-Nov-28 01:00 340 5 -1.4
2014-Nov-28 00:00 320 5 -0.6
2014-Nov-27 23:00 070 6 gusting 20 -0.4
2014-Nov-27 22:00 040 2 gusting 15 -0.3
2014-Nov-27 21:00 070 11 gusting 22 -0.3
2014-Nov-27 20:00 070 13 gusting 24 0.6
2014-Nov-27 19:00 080 13 gusting 24 0.6
2014-Nov-27 18:00 090 13 gusting 27 0.6
2014-Nov-27 17:00 070 9 gusting 18 -0.5
2014-Nov-27 16:00 090 11 gusting 19 -0.2
2014-Nov-27 15:00 080 12 gusting 25 -1.1
2014-Nov-27 14:00 090 7 gusting 15 -1.2
2014-Nov-27 13:00 100 1 -1.6
2014-Nov-27 12:00 -2.0
2014-Nov-27 11:00 -2.0
2014-Nov-27 10:00 -2.0
2014-Nov-27 09:00 190 0 -1.6
2014-Nov-27 08:00 -1.4
2014-Nov-27 07:00 050 0 -1.2
2014-Nov-27 06:00 140 1 -1.5
2014-Nov-27 05:00 040 0 -1.6
2014-Nov-27 04:00 050 0 -1.4
2014-Nov-27 03:00 110 1 -0.8
2014-Nov-27 02:00 010 2 -0.0
2014-Nov-27 01:00 320 1 -0.0
2014-Nov-27 00:00 290 1 -0.5
2014-Nov-26 23:00 270 6 -0.4
2014-Nov-26 22:00 270 7 0.7
2014-Nov-26 21:00 260 9 1.0
2014-Nov-26 20:00 260 12 gusting 20 1.6
2014-Nov-26 19:00 270 7 gusting 14 1.6
2014-Nov-26 18:00 280 11 gusting 18 2.0
2014-Nov-26 17:00 270 11 gusting 21 2.8
2014-Nov-26 16:00 270 14 gusting 26 3.0
2014-Nov-26 15:00 270 15 gusting 24 5.0
2014-Nov-26 14:00 250 19 gusting 27 4.7
2014-Nov-26 13:00 250 17 gusting 26 4.1
2014-Nov-26 12:00 250 20 gusting 29 4.4
2014-Nov-26 11:00 250 21 gusting 34 4.4